Weather History for Brenham, TX

Change the Weather History Date:

Friday, December 21, 2012

  Actual Average (KCLL) Record (KCLL)
Temperature  
Mean Temperature 47 °F 51 °F  
Max Temperature 64 °F 61 °F 84 °F (2010)
Min Temperature 30 °F 41 °F 21 °F (1916)
Degree Days  
Heating Degree Days 18 14  
Month to date heating degree days 266  
Since 1 July heating degree days 491  
Cooling Degree Days 0 0  
Month to date cooling degree days 13  
Year to date cooling degree days 3086  
Moisture  
Dew Point 16 °F    
Average Humidity 37    
Maximum Humidity 75    
Minimum Humidity 10    
Precipitation  
Precipitation 0.00 in 0.11 in 2.38 in (1991)
Month to date precipitation 2.19  
Year to date precipitation 39.02  
Sea Level Pressure  
Sea Level Pressure 30.44 in    
Wind  
Wind Speed 2 mph (SW)    
Max Wind Speed 7 mph    
Max Gust Speed -    
Visibility 10 miles    
Events      
T = Trace of Precipitation, MM = Missing Value Source: NWS Daily Summary

Daily Weather History Graph

Daily Weather History Graph

Search for Another Location

Airport:

Trip Planner

Search our weather history database for the weather conditions in past years. The results will help you decide how hot, cold, wet, or windy it might be!

Date:

Astronomy

Dec. 21, 2012 Rise Set
Actual Time 7:17 AM CST 5:29 PM CST
Civil Twilight 6:51 AM CST 5:56 PM CST
Nautical Twilight 6:21 AM CST 6:26 PM CST
Astronomical Twilight 5:52 AM CST 6:55 PM CST
Moon 1:02 PM CST (12/21) 1:23 AM CST (12/21)
Length of Visible Light 11h 04m
Length of Day
10h 11m
Waxing Gibbous, 65% of the Moon is Illuminated
Dec 21
Waxing Gibbous
Dec 28
Full
Jan 4
Last Quarter
Jan 11
New
Jan 18
First Quarter

Hourly Weather History & Observations

Time (CST) Temp. Windchill Dew Point Humidity Pressure Visibility Wind Dir Wind Speed Gust Speed Precip Events Conditions
12:15 AM 37.4 °F 33.8 °F 15.8 °F 41% 30.47 in 10.0 mi West 4.6 mph - N/A   Clear
12:35 AM 35.6 °F 32.8 °F 19.4 °F 52% 30.47 in 10.0 mi WNW 3.5 mph - N/A   Clear
12:55 AM 37.4 °F 34.9 °F 17.6 °F 45% 30.47 in 10.0 mi WNW 3.5 mph - N/A   Clear
1:15 AM 35.6 °F - 19.4 °F 52% 30.47 in 10.0 mi Calm Calm - N/A   Clear
1:35 AM 32.0 °F - 23.0 °F 69% 30.47 in 10.0 mi Calm Calm - N/A   Clear
1:55 AM 33.8 °F - 23.0 °F 65% 30.48 in 10.0 mi Calm Calm - N/A   Clear
2:15 AM 35.6 °F - 17.6 °F 48% 30.48 in 10.0 mi Calm Calm - N/A   Clear
2:35 AM 33.8 °F - 19.4 °F 56% 30.48 in 10.0 mi Calm Calm - N/A   Clear
2:55 AM 32.0 °F - 21.2 °F 64% 30.48 in 10.0 mi Calm Calm - N/A   Clear
3:15 AM 33.8 °F 29.6 °F 17.6 °F 52% 30.47 in 10.0 mi West 4.6 mph - N/A   Clear
3:35 AM 32.0 °F - 19.4 °F 60% 30.47 in 10.0 mi Calm Calm - N/A   Clear
3:55 AM 32.0 °F - 19.4 °F 60% 30.47 in 10.0 mi Calm Calm - N/A   Clear
4:15 AM 32.0 °F - 21.2 °F 64% 30.47 in 10.0 mi Calm Calm - N/A   Clear
4:35 AM 32.0 °F - 19.4 °F 60% 30.47 in 10.0 mi Calm Calm - N/A   Clear
4:55 AM 32.0 °F - 21.2 °F 64% 30.47 in 10.0 mi Calm Calm - N/A   Clear
5:15 AM 30.2 °F - 23.0 °F 75% 30.48 in 10.0 mi Calm Calm - N/A   Clear
5:35 AM 32.0 °F - 21.2 °F 64% 30.48 in 10.0 mi Calm Calm - N/A   Clear
5:55 AM 32.0 °F - 17.6 °F 55% 30.48 in 10.0 mi Calm Calm - N/A   Clear
6:15 AM 32.0 °F - 21.2 °F 64% 30.48 in 10.0 mi Calm Calm - N/A   Clear
6:35 AM 30.2 °F 25.4 °F 23.0 °F 75% 30.49 in 10.0 mi WNW 4.6 mph - N/A   Clear
6:55 AM 32.0 °F - 19.4 °F 60% 30.49 in 10.0 mi Calm Calm - N/A   Clear
7:15 AM 32.0 °F - 21.2 °F 64% 30.50 in 10.0 mi Calm Calm - N/A   Clear
7:35 AM 32.0 °F - 23.0 °F 69% 30.50 in 10.0 mi Calm Calm - N/A   Clear
7:55 AM 32.0 °F - 17.6 °F 55% 30.50 in 10.0 mi Calm Calm - N/A   Clear
8:15 AM 33.8 °F - 17.6 °F 52% 30.51 in 10.0 mi Calm Calm - N/A   Clear
8:35 AM 35.6 °F - 21.2 °F 56% 30.51 in 10.0 mi Calm Calm - N/A   Clear
8:55 AM 37.4 °F - 24.8 °F 60% 30.52 in 10.0 mi Calm Calm - N/A   Clear
9:15 AM 41.0 °F - 24.8 °F 53% 30.52 in 10.0 mi Calm Calm - N/A   Clear
9:35 AM 46.4 °F - 26.6 °F 46% 30.52 in 10.0 mi Calm Calm - N/A   Clear
9:55 AM 51.8 °F - 26.6 °F 38% 30.53 in 10.0 mi Calm Calm - N/A   Clear
10:15 AM 53.6 °F - 21.2 °F 28% 30.52 in 10.0 mi Calm Calm - N/A   Clear
10:35 AM 55.4 °F - 14.0 °F 20% 30.52 in 10.0 mi Calm Calm - N/A   Clear
10:55 AM 55.4 °F - 8.6 °F 15% 30.51 in 10.0 mi Calm Calm - N/A   Clear
11:15 AM 57.2 °F - 5.0 °F 12% 30.50 in 10.0 mi Calm Calm - N/A   Clear
11:35 AM 59.0 °F - 5.0 °F 12% 30.49 in 10.0 mi NW 3.5 mph - N/A   Clear
11:55 AM 59.0 °F - 5.0 °F 12% 30.48 in 10.0 mi Calm Calm - N/A   Clear
12:15 PM 60.8 °F - 5.0 °F 11% 30.48 in 10.0 mi West 3.5 mph - N/A   Clear
12:35 PM 60.8 °F - 3.2 °F 10% 30.46 in 10.0 mi ESE 3.5 mph - N/A   Clear
12:55 PM 60.8 °F - 5.0 °F 11% 30.45 in 10.0 mi Calm Calm - N/A   Clear
1:15 PM 62.6 °F - 5.0 °F 10% 30.43 in 10.0 mi SW 3.5 mph - N/A   Clear
1:35 PM 62.6 °F - 5.0 °F 10% 30.42 in 10.0 mi WSW 3.5 mph - N/A   Clear
1:55 PM 64.4 °F - 6.8 °F 10% 30.41 in 10.0 mi SSW 4.6 mph - N/A   Clear
2:15 PM 62.6 °F - 6.8 °F 11% 30.40 in 10.0 mi SSW 4.6 mph - N/A   Clear
2:35 PM 64.4 °F - 5.0 °F 10% 30.40 in 10.0 mi SSW 5.8 mph - N/A   Clear
2:55 PM 64.4 °F - 5.0 °F 10% 30.39 in 10.0 mi SW 3.5 mph - N/A   Clear
3:15 PM 64.4 °F - 6.8 °F 10% 30.39 in 10.0 mi SW 5.8 mph - N/A   Clear
3:35 PM 64.4 °F - 8.6 °F 11% 30.39 in 10.0 mi SSW 6.9 mph - N/A   Clear
3:55 PM 64.4 °F - 6.8 °F 10% 30.39 in 10.0 mi SSW 6.9 mph - N/A   Clear
4:15 PM 62.6 °F - 6.8 °F 11% 30.38 in 10.0 mi SSW 5.8 mph - N/A   Clear
4:35 PM 62.6 °F - 8.6 °F 12% 30.38 in 10.0 mi South 6.9 mph - N/A   Clear
4:55 PM 60.8 °F - 8.6 °F 13% 30.38 in 10.0 mi SSW 6.9 mph - N/A   Clear
5:15 PM 59.0 °F - 10.4 °F 15% 30.38 in 10.0 mi South 3.5 mph - N/A   Clear
5:35 PM 57.2 °F - 12.2 °F 17% 30.38 in 10.0 mi Calm Calm - N/A   Clear
5:55 PM 57.2 °F - 12.2 °F 17% 30.39 in 10.0 mi SW 3.5 mph - N/A   Clear
6:15 PM 55.4 °F - 14.0 °F 20% 30.39 in 10.0 mi SW 3.5 mph - N/A   Clear
6:35 PM 55.4 °F - 14.0 °F 20% 30.40 in 10.0 mi SW 3.5 mph - N/A   Clear
6:55 PM 53.6 °F - 17.6 °F 24% 30.39 in 10.0 mi SSW 3.5 mph - N/A   Clear
7:15 PM 51.8 °F - 17.6 °F 26% 30.39 in 10.0 mi Calm Calm - N/A   Clear
7:35 PM 51.8 °F - 17.6 °F 26% 30.39 in 10.0 mi Calm Calm - N/A   Clear
7:55 PM 51.8 °F - 17.6 °F 26% 30.39 in 10.0 mi Calm Calm - N/A   Clear
8:15 PM 50.0 °F - 19.4 °F 30% 30.38 in 10.0 mi Calm Calm - N/A   Clear
8:35 PM 50.0 °F - 17.6 °F 28% 30.39 in 10.0 mi Calm Calm - N/A   Clear
8:55 PM 48.2 °F - 19.4 °F 32% 30.39 in 10.0 mi Calm Calm - N/A   Clear
9:15 PM 46.4 °F 45.2 °F 21.2 °F 37% 30.38 in 10.0 mi SSW 3.5 mph - N/A   Clear
9:35 PM 46.4 °F - 21.2 °F 37% 30.39 in 10.0 mi Calm Calm - N/A   Clear
9:55 PM 46.4 °F - 21.2 °F 37% 30.39 in 10.0 mi Calm Calm - N/A   Clear
10:15 PM 46.4 °F - 21.2 °F 37% 30.40 in 10.0 mi Calm Calm - N/A   Clear
10:35 PM 44.6 °F - 23.0 °F 43% 30.39 in 10.0 mi Calm Calm - N/A   Clear
10:55 PM 44.6 °F - 23.0 °F 43% 30.39 in 10.0 mi Calm Calm - N/A   Clear
11:15 PM 44.6 °F - 23.0 °F 43% 30.40 in 10.0 mi Calm Calm - N/A   Clear
11:35 PM 42.8 °F - 21.2 °F 42% 30.40 in 10.0 mi Calm Calm - N/A   Clear
11:55 PM 42.8 °F - 21.2 °F 42% 30.40 in 10.0 mi Calm Calm - N/A   Clear